Wind_Speed
21 22 22 22 22 22 21 20 19 17 17 18 18 18 18 18 18 19 19 18 17 17 17 16 15 15 14 14 13 13 13 14 15 15 15 16 18 18 19 18 18 17 17
22 22 21 22 22 21 20 19 17 17 16 17 18 19 18 19 19 18 18 17 16 17 18 19 18 17 16 16 15 14 14 14 15 15 15 15 16 16 16 15 14 13 12
22 22 21 20 19 19 18 17 16 16 16 16 16 17 17 18 18 18 18 16 15 16 18 19 19 19 18 18 17 16 16 15 16 16 16 16 16 16 16 15 14 13 11
23 22 21 18 17 16 16 15 15 15 14 13 13 14 15 16 17 18 18 17 16 16 17 19 20 20 20 20 20 18 17 16 16 17 17 18 18 18 18 17 17 15 14
22 21 19 16 14 14 14 14 14 14 14 12 11 12 13 15 16 18 19 19 18 18 19 19 20 21 22 22 22 21 19 18 17 18 19 20 20 21 21 20 20 19 19
22 19 17 14 13 13 14 14 14 14 14 14 12 12 12 13 15 18 19 20 20 21 22 22 21 21 21 22 22 21 21 20 19 20 21 22 24 24 25 25 24 24 24
20 17 15 12 12 13 14 13 14 15 15 15 15 14 14 14 15 17 19 20 21 23 24 24 23 22 22 22 22 22 22 23 22 23 25 26 28 29 29 29 29 29 29
19 16 14 12 13 14 14 13 14 15 15 16 16 17 17 17 17 18 18 19 20 21 22 22 22 22 22 23 24 25 26 26 27 27 29 30 32 33 34 34 33 33 34
19 16 14 13 13 14 14 14 14 15 16 17 17 18 19 20 21 21 21 21 21 21 21 22 23 24 25 26 28 29 30 31 32 33 34 35 37 38 39 39 39 39 39
20 17 15 15 15 15 14 14 14 15 16 17 18 19 19 20 22 23 24 25 25 25 25 26 27 27 29 30 32 33 35 36 37 38 40 41 41 42 42 43 43 43 43
21 19 17 16 16 16 15 14 14 15 15 16 18 19 19 20 21 22 24 25 27 28 28 29 30 31 32 34 35 36 38 40 41 42 43 44 44 43 42 42 43 44 44
21 20 19 18 18 17 16 15 16 16 17 17 17 18 19 20 21 21 23 24 26 27 29 30 31 33 35 36 38 39 41 43 44 44 43 43 42 41 40 40 40 41 42
22 21 21 20 19 19 18 17 18 19 20 20 20 19 20 21 21 22 23 24 26 27 29 31 33 35 37 39 40 42 43 43 42 40 39 38 37 37 36 36 36 37 38
23 22 22 21 21 21 21 21 21 22 23 23 23 23 23 23 23 24 25 26 28 30 32 34 36 38 39 41 41 40 38 36 35 34 33 33 34 34 35 35 36 37 38
23 22 22 22 22 23 23 23 24 25 26 26 27 27 26 26 27 27 28 30 31 33 34 35 36 37 37 37 36 35 34 33 33 33 33 33 34 35 37 38 38 39 40
23 22 22 23 24 24 25 25 26 28 29 30 30 30 29 29 30 31 32 33 34 35 35 35 35 35 35 34 34 33 33 33 34 35 35 36 36 36 37 38 40 42 44
24 22 22 24 24 25 25 26 27 28 30 31 31 31 31 31 32 33 34 35 36 35 35 34 34 33 32 32 32 33 34 35 36 36 37 37 38 39 40 42 44 46 49
24 22 23 24 24 25 26 27 28 30 32 32 32 32 31 32 33 35 36 37 36 35 34 33 32 32 32 33 33 35 35 36 37 38 39 41 42 44 46 48 50 52 54
25 23 23 24 25 26 27 29 31 33 33 33 32 31 31 33 35 37 38 37 36 35 34 33 33 34 35 35 36 37 38 39 41 42 44 46 49 51 53 55 57 59 61
27 25 24 25 26 27 29 31 33 34 33 32 31 31 33 35 37 39 39 38 36 35 35 35 36 37 38 38 39 40 41 43 46 48 50 52 55 57 59 61 63 65 67
28 27 26 27 28 30 32 34 35 34 33 32 32 33 35 37 39 40 39 37 37 37 37 38 38 40 41 43 44 45 47 49 52 54 56 59 61 63 65 67 69 71 72
29 28 28 28 30 32 34 35 34 33 32 32 33 35 38 40 40 40 39 39 39 39 40 40 42 43 45 48 50 51 53 54 56 59 62 64 66 67 69 71 72 74 75
30 29 29 30 32 33 34 34 33 33 33 34 36 38 40 41 41 40 40 40 41 42 43 44 45 47 49 52 56 59 62 64 64 64 65 67 69 71 73 74 76 77 79
29 28 29 30 32 33 33 33 33 33 35 37 38 40 41 42 42 41 41 42 42 43 44 46 49 52 55 58 61 65 68 71 73 72 71 72 73 75 76 78 80 82 84
27 28 29 30 31 32 32 33 34 35 37 39 40 41 42 42 41 41 42 42 43 44 47 50 54 57 61 64 67 69 71 73 75 77 77 77 78 79 82 84 87 89 91
27 28 29 30 31 32 34 35 37 38 39 40 41 41 41 41 41 41 42 43 45 48 52 55 59 62 65 68 71 73 75 77 78 80 81 81 82 84 87 90 93 96 98
Wind_Direction
274 279 285 290 295 298 299 298 294 286 274 268 268 268 266 265 266 267 266 264 263 263 264 266 265 265 270 276 282 289 293 295 299 303 312 321 326 325 319 313 307 303 299
274 279 285 292 298 301 303 301 296 288 280 272 268 268 267 265 265 268 268 268 268 268 267 269 269 269 272 275 278 283 286 290 295 300 310 320 329 332 330 325 319 314 308
269 275 283 292 299 303 304 302 297 291 284 279 274 272 270 265 264 267 269 269 272 273 273 273 275 275 276 277 278 281 282 287 293 298 305 313 319 324 328 326 323 319 314
265 272 281 290 296 299 301 299 296 291 286 284 281 278 273 267 264 265 268 269 272 275 278 278 277 277 276 277 279 280 280 283 289 294 299 304 308 310 314 316 316 314 310
262 269 279 284 289 294 295 294 295 291 287 289 287 284 280 274 268 266 267 269 272 275 280 283 283 280 276 276 277 278 278 279 284 289 293 296 298 298 299 301 302 302 301
259 268 274 277 282 287 290 291 292 293 291 290 289 287 288 284 275 268 268 271 273 275 277 281 285 283 279 276 276 277 278 278 281 284 287 289 290 290 291 291 291 291 291
257 262 268 268 275 282 286 288 289 290 291 290 288 288 288 286 282 277 274 275 275 276 278 280 283 283 281 279 278 279 280 280 280 280 281 282 283 284 285 285 286 286 287
253 257 259 256 266 277 282 285 286 287 287 287 287 285 284 283 281 281 282 282 282 282 281 280 280 280 279 279 279 279 279 280 280 279 279 279 280 280 281 280 281 282 283
250 252 246 245 258 271 278 283 286 286 286 286 285 284 282 280 279 279 280 281 282 282 280 279 278 277 276 275 275 277 279 281 282 283 283 283 282 281 281 280 280 280 281
246 244 237 243 256 266 273 282 288 290 291 290 288 287 285 284 282 280 279 280 280 280 279 277 276 276 276 277 278 280 282 284 286 287 287 287 286 285 283 281 281 280 281
242 240 235 239 250 260 270 282 290 293 294 294 292 291 291 289 288 286 283 281 280 279 279 278 279 280 280 281 282 283 284 285 286 287 287 287 286 285 283 281 281 281 282
240 238 238 242 248 253 263 280 289 292 294 295 296 296 295 293 291 289 287 285 283 282 282 282 283 283 283 283 284 285 285 286 287 287 287 287 287 287 285 283 282 282 283
238 239 241 245 250 254 262 275 285 290 292 295 297 297 296 293 292 291 291 290 289 288 287 286 286 285 285 285 286 286 287 288 288 288 288 288 289 289 289 288 287 287 287
240 239 242 246 252 256 263 273 281 285 289 292 295 297 297 295 293 293 293 293 293 293 292 291 290 289 288 288 288 289 289 289 290 290 291 291 292 292 292 292 291 291 291
243 243 243 247 253 260 265 273 280 284 285 288 291 293 295 295 294 294 293 294 294 294 293 293 292 291 289 289 289 289 290 292 293 294 294 293 294 294 295 295 294 293 292
244 245 246 250 255 263 269 275 280 283 285 286 287 290 291 292 293 294 295 295 295 295 295 293 292 291 291 291 292 293 294 295 295 295 294 293 293 293 293 293 293 293 292
245 247 250 254 260 266 272 278 282 284 285 286 286 287 288 290 292 294 296 296 297 297 295 294 294 295 294 294 294 293 293 292 292 291 290 290 290 290 290 290 291 291 291
245 248 252 257 262 269 275 280 285 287 288 288 287 287 288 290 293 295 297 298 298 298 297 296 296 295 294 293 292 290 290 289 288 287 287 288 288 289 289 290 290 290 291
246 249 253 258 265 272 278 283 287 289 290 290 288 288 289 291 294 296 298 298 298 297 296 295 294 293 292 291 290 290 289 288 288 288 288 289 289 290 291 291 291 291 291
247 250 254 260 268 275 281 285 289 290 290 289 288 289 291 294 297 299 299 298 296 295 295 295 294 294 293 292 291 291 290 291 290 291 291 291 292 292 292 292 291 291 291
249 252 257 264 271 277 282 287 289 289 288 287 289 292 295 297 299 300 300 299 298 298 298 297 296 296 296 296 295 295 295 294 294 293 293 293 293 293 292 292 292 292 292
251 255 261 267 273 278 283 286 287 286 287 288 290 293 295 297 299 300 301 302 302 302 301 301 301 301 300 299 298 296 294 293 292 292 292 292 292 292 292 292 292 292 292
252 256 263 269 275 280 283 284 284 285 286 289 291 293 295 297 299 301 302 303 303 304 304 304 303 301 300 299 299 298 296 294 292 292 291 291 291 292 292 292 292 292 291
253 258 265 272 278 282 282 282 283 285 287 290 292 294 297 299 301 302 303 303 304 304 304 303 302 300 300 299 299 299 298 298 296 295 294 294 294 294 294 294 294 293 292
254 260 268 275 279 280 280 281 283 285 288 291 293 296 298 300 301 301 302 302 302 302 302 301 301 300 300 300 300 299 299 299 298 297 296 296 296 297 297 297 296 296 295
255 262 270 275 278 278 279 280 283 286 289 292 295 297 298 299 299 299 300 300 300 300 301 301 302 302 302 302 301 301 301 300 300 299 298 297 297 298 299 299 299 298 298
Height
5854 5854 5854 5853 5852 5852 5851 5851 5850 5850 5850 5850 5851 5851 5852 5853 5853 5854 5855 5855 5855 5856 5856 5856 5856 5855 5855 5855 5855 5854 5854 5854 5853 5852 5851 5849 5848 5846 5844 5843 5842 5840 5839
5851 5851 5851 5851 5850 5849 5849 5848 5848 5847 5847 5847 5848 5848 5849 5850 5851 5851 5852 5853 5853 5853 5854 5854 5853 5853 5853 5853 5852 5851 5851 5851 5850 5849 5848 5847 5845 5844 5842 5841 5839 5838 5837
5848 5848 5849 5848 5848 5847 5846 5846 5846 5845 5845 5845 5845 5846 5846 5847 5848 5849 5850 5850 5850 5850 5851 5851 5851 5850 5850 5850 5849 5848 5848 5848 5847 5846 5845 5844 5843 5841 5840 5839 5838 5837 5836
5846 5846 5847 5846 5846 5845 5844 5844 5844 5844 5843 5843 5843 5843 5844 5844 5845 5846 5847 5847 5847 5847 5848 5848 5847 5847 5846 5846 5845 5845 5844 5843 5843 5842 5841 5840 5840 5839 5838 5837 5836 5835 5834
5843 5844 5844 5844 5844 5843 5842 5842 5842 5842 5842 5841 5841 5841 5841 5841 5842 5843 5843 5844 5844 5844 5844 5844 5843 5842 5842 5842 5841 5841 5840 5839 5838 5837 5837 5836 5836 5835 5834 5833 5832 5831 5831
5840 5842 5842 5842 5842 5841 5840 5840 5840 5840 5839 5839 5839 5839 5839 5839 5839 5839 5840 5840 5840 5840 5840 5840 5839 5838 5838 5837 5837 5836 5835 5834 5833 5833 5832 5832 5831 5830 5829 5828 5828 5827 5826
5837 5839 5839 5840 5839 5839 5838 5837 5837 5837 5837 5837 5836 5836 5836 5836 5836 5836 5836 5836 5836 5836 5836 5836 5835 5834 5834 5833 5832 5831 5830 5829 5828 5828 5827 5826 5825 5824 5823 5822 5822 5821 5820
5834 5836 5836 5837 5837 5836 5836 5835 5834 5834 5834 5834 5833 5833 5833 5833 5833 5833 5832 5832 5832 5832 5831 5831 5830 5829 5828 5827 5826 5825 5824 5822 5822 5821 5821 5820 5819 5817 5816 5815 5814 5814 5813
5830 5832 5833 5833 5833 5833 5833 5833 5832 5831 5831 5830 5830 5830 5829 5829 5829 5828 5828 5827 5827 5827 5826 5825 5824 5823 5822 5821 5820 5819 5818 5817 5816 5814 5814 5813 5812 5810 5809 5808 5807 5806 5805
5826 5828 5829 5829 5830 5830 5830 5830 5829 5829 5828 5827 5826 5826 5825 5824 5824 5823 5822 5822 5822 5821 5820 5819 5818 5817 5816 5815 5814 5814 5813 5811 5810 5808 5806 5805 5803 5802 5801 5799 5798 5797 5796
5822 5824 5825 5826 5827 5827 5827 5827 5827 5826 5825 5824 5823 5822 5820 5819 5819 5818 5817 5817 5816 5815 5814 5813 5812 5811 5811 5810 5809 5808 5806 5805 5803 5801 5799 5796 5794 5792 5791 5789 5789 5788 5787
5818 5820 5821 5822 5823 5824 5824 5824 5824 5823 5822 5820 5819 5818 5816 5815 5814 5814 5812 5812 5811 5810 5809 5808 5807 5806 5804 5803 5801 5800 5798 5796 5795 5792 5790 5787 5785 5783 5781 5780 5779 5778 5777
5814 5816 5817 5818 5819 5820 5821 5821 5821 5820 5818 5817 5816 5815 5813 5812 5811 5810 5809 5807 5806 5805 5803 5802 5800 5799 5797 5795 5794 5792 5790 5788 5786 5784 5781 5779 5776 5774 5773 5771 5770 5769 5768
5809 5812 5813 5814 5815 5816 5817 5817 5817 5816 5815 5814 5812 5811 5809 5808 5807 5806 5804 5803 5801 5799 5797 5795 5793 5791 5789 5788 5786 5784 5781 5779 5777 5775 5773 5771 5769 5766 5764 5763 5761 5760 5758
5805 5807 5809 5810 5811 5812 5813 5813 5813 5812 5811 5810 5808 5806 5805 5804 5802 5801 5799 5797 5795 5793 5791 5789 5786 5784 5782 5779 5777 5775 5773 5771 5769 5767 5765 5764 5762 5759 5757 5754 5753 5751 5749
5802 5804 5805 5806 5807 5808 5808 5809 5808 5807 5806 5805 5803 5802 5800 5798 5797 5795 5793 5791 5789 5786 5784 5781 5779 5776 5774 5772 5770 5767 5765 5763 5761 5759 5757 5755 5753 5751 5748 5745 5743 5740 5738
5798 5800 5801 5802 5803 5803 5804 5804 5804 5803 5802 5800 5798 5797 5795 5793 5791 5789 5787 5784 5781 5779 5776 5773 5771 5768 5766 5764 5762 5760 5757 5755 5753 5750 5747 5745 5743 5740 5738 5735 5732 5729 5726
5794 5795 5797 5798 5798 5799 5799 5799 5799 5797 5796 5794 5792 5791 5789 5787 5785 5783 5780 5777 5774 5770 5768 5765 5763 5760 5758 5756 5754 5751 5749 5746 5743 5740 5737 5735 5732 5729 5725 5722 5719 5716 5712
5789 5791 5792 5793 5794 5794 5794 5794 5793 5791 5790 5788 5786 5785 5783 5781 5778 5776 5773 5769 5766 5763 5760 5757 5754 5752 5749 5747 5745 5742 5740 5736 5733 5730 5727 5723 5719 5716 5712 5708 5705 5701 5697
5785 5787 5788 5789 5789 5789 5789 5788 5787 5785 5783 5782 5780 5779 5777 5774 5772 5769 5765 5762 5758 5755 5752 5749 5746 5743 5740 5738 5735 5733 5729 5726 5722 5719 5715 5711 5707 5702 5698 5693 5689 5685 5680
5780 5782 5783 5784 5784 5784 5783 5782 5780 5779 5777 5776 5774 5772 5770 5767 5764 5761 5758 5754 5750 5747 5744 5741 5737 5734 5730 5727 5724 5722 5719 5714 5710 5706 5701 5697 5692 5687 5682 5677 5671 5666 5660
5775 5777 5778 5779 5779 5778 5777 5776 5774 5773 5771 5769 5767 5765 5763 5760 5757 5753 5749 5746 5742 5738 5735 5731 5727 5724 5719 5715 5711 5708 5706 5704 5699 5693 5687 5682 5676 5671 5666 5659 5653 5647 5640
5770 5772 5773 5773 5773 5772 5771 5769 5768 5767 5765 5763 5761 5758 5755 5752 5748 5745 5741 5737 5733 5729 5725 5721 5717 5713 5709 5704 5697 5692 5687 5683 5682 5680 5673 5666 5660 5653 5647 5640 5633 5626 5618
5765 5766 5767 5767 5766 5765 5764 5763 5762 5760 5758 5756 5753 5751 5747 5744 5740 5736 5732 5728 5724 5720 5716 5711 5706 5701 5696 5691 5685 5678 5670 5662 5656 5654 5653 5646 5639 5632 5625 5618 5610 5602 5593
5760 5761 5761 5761 5760 5759 5758 5756 5755 5753 5751 5748 5745 5743 5739 5736 5732 5727 5723 5720 5715 5711 5706 5701 5695 5689 5682 5676 5669 5662 5655 5648 5639 5632 5629 5624 5617 5609 5600 5592 5583 5573 5563
5754 5755 5755 5754 5753 5752 5751 5749 5747 5745 5743 5741 5738 5734 5731 5728 5724 5719 5715 5711 5706 5701 5695 5689 5682 5675 5668 5660 5652 5644 5636 5628 5619 5610 5605 5601 5595 5588 5577 5567 5555 5544 5531